Terug naar catalogus

STARLINK-35582

ActiefCommunicatieVLEO
NORAD 66537·PAYLOAD·🇺🇸 United States

Gelanceerd Nov 19, 2025 vanaf Cape Canaveral Space Force Station

Loading…

Volgende Passages (komende 24 uur)

TLE

VersSource: CelesTrak SupGP

Epoch: Sep 15, 2026, 02:36 UTC

1 66537C 25265X   26258.10881944  .00018089  00000+0  65512-3 0  2580
2 66537  42.9998 288.2187 0001283 264.2032  48.5931 15.27572893    19

Volg STARLINK-35582 in realtime met AllMySat

Download on the App Store